This demonstration page uses our WeatherBlox Daily Observations layout. Learn more.

Hourly Observations for February 23, 2019

Temp ( °F °C ) Dew Point ( °F °C ) Humidity (%) Winds ( mph kmh ) Pressure ( in mb ) Visibility ( mi km ) Precip ( " mm )
12:26 am 00:26 Cloudy with Mist and Fog 33 0.6 31 -0.6 92 92 E 5 7 30.03 1017 2 3.21868 0 0
12:54 am 00:54 Cloudy with Mist and Fog 33 0.6 32 0 96 96 ENE 5 7 29.99 1016 3 4.82802 0 0
1:54 am 01:54 Cloudy with Mist and Fog 33 0.6 32 0 96 96 ENE 5 7 29.98 1015 3 4.82802 0 0
2:12 am 02:12 Cloudy with Mist and Fog 33 0.6 31 -0.6 92 92 E 5 7 30.01 1016 2.5 4.02335 0 0
2:41 am 02:41 Cloudy with Mist and Fog 33 0.6 32 0 96 96 ENE 6 9 29.99 1015 1.75 2.816345 0 0
2:54 am 02:54 Cloudy with Mist and Fog 33 0.6 31 -0.6 92 92 NE 7 11 29.95 1014 1.5 2.41401 0 0
3:54 am 03:54 Cloudy with Mist and Fog 32 0 32 0 100 100 ENE 7 11 29.94 1014 1.25 2.011675 0 0
4:16 am 04:16 Cloudy with Mist and Fog 32 0 32 0 100 100 NE 5 7 29.97 1015 0.75 1.207005 0 0
4:54 am 04:54 Mostly Cloudy with Fog 32 0 31 -0.6 96 96 NNE 8 13 29.93 1014 0.5 0.80467 0 0
5:54 am 05:54 Mostly Cloudy with Fog 32 0 31 -0.6 96 96 NE 10 17 29.91 1013 0.5 0.80467 0 0
6:32 am 06:32 Cloudy with Mist and Fog 32 0 31 -0.6 96 96 NE 8 13 29.93 1014 1 1.60934 0 0
6:41 am 06:41 Cloudy with Mist and Fog 32 0 31 -0.6 96 96 NE 8 13 29.92 1013 0.75 1.207005 0 0
6:54 am 06:54 Mostly Cloudy with Fog 32 0 31 -0.6 96 96 NNE 9 15 29.89 1012 0.5 0.80467 0 0
7:54 am 07:54 Cloudy with Mist and Fog 32 0 31 -0.6 96 96 N 10 17 29.9 1012 0.75 1.207005 0 0
8:27 am 08:27 Cloudy with Mist and Fog 31 -0.6 30 -1.1 96 96 NNE 12 19 29.93 1014 1 1.60934 0 0
8:54 am 08:54 Cloudy with Mist and Fog 31 -0.6 30 -1.1 96 96 NNE 15 24 29.86 1011 1.25 2.011675 0 0
9:54 am 09:54 Cloudy with Mist and Fog 32 0 30 -1.1 92 92 N 18 30 29.79 1009 1.75 2.816345 0 0.0254
10:28 am 10:28 Cloudy with Mist and Fog 32 0 30 -1.1 92 92 NNE 18 30 29.82 1010 2 3.21868 0 0
10:41 am 10:41 Cloudy with Mist and Fog 32 0 30 -1.1 92 92 NNE 16 26 29.82 1010 1.75 2.816345 0 0
10:54 am 10:54 Cloudy with Mist and Fog 32 0 30 -1.1 92 92 NNE 17 28 29.78 1008 2 3.21868 0 0
11:20 am 11:20 Cloudy with Light Wintry Mix 32 0 30 -1.1 92 92 NE 18 30 29.81 1009 1.25 2.011675 0 0.0254
11:36 am 11:36 Windy with Snow Likely 32 0 30 -1.1 92 92 NNE 23 37 29.77 1008 0.75 1.207005 0 0.0254
11:54 am 11:54 Windy with Snow Likely 32 0 30 -1.1 92 92 NNE 24 39 29.74 1007 0.75 1.207005 0 0.0254
12:05 pm 12:05 Cloudy with Light Wintry Mix 32 0 30 -1.1 92 92 N 21 33 29.75 1007 1 1.60934 0 0.0254
12:50 pm 12:50 Cloudy with Freezing Rain 32 0 30 -1 93 93 NNE 24 39 29.71 1006 1.5 2.41401 0.02 0.508
12:54 pm 12:54 Windy with Snow Likely 32 0 29 -1.7 88 88 N 22 35 29.68 1005 1.75 2.816345 0.02 0.508
1:11 pm 13:11 Cloudy with Freezing Rain 32 0 29 -1.7 88 88 N 24 39 29.69 1005 2 3.21868 0.01 0.254
1:39 pm 13:39 Cloudy with Freezing Rain 31 -0.6 29 -1.7 92 92 N 25 41 29.69 1005 3 4.82802 0.04 1.016
1:46 pm 13:46 Cloudy with Freezing Rain 31 -0.6 28 -2.2 89 89 N 24 39 29.68 1005 2.5 4.02335 0.05 1.27
1:52 pm 13:52 Windy with Snow Likely 30 -1 28 -2 93 93 N 21 33 29.68 1005 1.75 2.816345 0.05 1.27
1:53 pm 13:53 Windy with Snow Likely 31 -0.6 29 -1.7 92 92 N 21 33 29.65 1004 1.75 2.816345 0.05 1.27
2:04 pm 14:04 Cloudy with Snow 30 -1.1 28 -2.2 92 92 N 26 43 29.69 1006 0.5 0.80467 0.01 0.254
2:07 pm 14:07 Cloudy with Snow 30 -1.1 28 -2.2 92 92 N 21 33 29.68 1005 0.25 0.402335 0.02 0.508
2:26 pm 14:26 Mostly Cloudy with Heavy Snow 29 -1.7 27 -2.8 92 92 N 31 50 29.68 1005 0.25 0.402335 0.05 1.27
2:54 pm 14:54 Mostly Cloudy with Freezing Fog 28 -2.2 26 -3.3 92 92 N 22 35 29.63 1003 5 8.0467 0.07 1.778
3:54 pm 15:54 Mostly Cloudy with Freezing Fog 27 -2.8 25 -3.9 92 92 N 30 48 29.64 1004 0.25 0.402335 0.05 1.27
4:25 pm 16:25 Mostly Cloudy with Freezing Fog 27 -2.8 25 -3.9 92 92 N 29 46 29.68 1005 0.25 0.402335 0 0
4:35 pm 16:35 Mostly Cloudy with Freezing Fog 27 -2.8 25 -3.9 92 92 N 23 37 29.7 1006 0.25 0.402335 0 0
4:52 pm 16:52 Cloudy with Freezing Fog 27 -3 25 -4 93 93 N 25 41 29.71 1006 0.5 0.80467 0 0
4:54 pm 16:54 Mostly Cloudy with Freezing Fog 27 -2.8 24 -4.4 89 89 NNW 24 39 29.67 1005 0.5 0.80467 0 0
5:10 pm 17:10 Cloudy with Freezing Fog 27 -2.8 24 -4.4 89 89 N 26 43 29.71 1006 0.25 0.402335 0 0
5:17 pm 17:17 Mostly Cloudy with Freezing Fog 27 -2.8 24 -4.4 89 89 N 26 43 29.72 1007 0.25 0.402335 0 0
5:22 pm 17:22 Mostly Cloudy with Freezing Fog 27 -2.8 24 -4.4 89 89 NNW 23 37 29.72 1007 0.25 0.402335 0 0
5:43 pm 17:43 Mostly Cloudy with Freezing Fog 26 -3.3 24 -4.4 92 92 NNW 23 37 29.75 1007 0.25 0.402335 0 0
5:54 pm 17:54 Mostly Cloudy with Freezing Fog 26 -3.3 24 -4.4 92 92 NNW 23 37 29.72 1006 0.25 0.402335 0 0
6:02 pm 18:02 Mostly Cloudy with Freezing Fog 26 -3.3 24 -4.4 92 92 NNW 21 33 29.77 1008 0.25 0.402335 0 0
6:18 pm 18:18 Mostly Cloudy with Freezing Fog 26 -3.3 24 -4.4 92 92 NNW 23 37 29.78 1008 0.5 0.80467 0 0
6:54 pm 18:54 Mostly Cloudy with Freezing Fog 25 -3.9 23 -5 92 92 NW 23 37 29.77 1008 0.5 0.80467 0 0
7:54 pm 19:54 Mostly Cloudy with Mist and Fog 24 -4.4 21 -6.1 88 88 NW 21 33 29.82 1010 0.75 1.207005 0 0
8:05 pm 20:05 Mostly Cloudy with Mist and Fog 24 -4.4 21 -6.1 88 88 NW 18 30 29.87 1012 0.75 1.207005 0 0
8:21 pm 20:21 Mostly Cloudy with Scattered Snow Showers 24 -4.4 20 -6.7 84 84 NW 22 35 29.87 1012 0.75 1.207005 0 0.0254
8:41 pm 20:41 Mostly Cloudy with Scattered Snow Showers 24 -4.4 20 -6.7 84 84 NW 20 31 29.88 1012 1 1.60934 0 0.0254
8:54 pm 20:54 Mostly Cloudy with Scattered Snow Showers 24 -4.4 20 -6.7 84 84 NW 21 33 29.84 1011 1 1.60934 0 0.0254
9:06 pm 21:06 Windy with Snow Likely 24 -4.4 19 -7.2 81 81 NW 20 31 29.89 1012 2 3.21868 0 0.0254
9:36 pm 21:36 Windy with Snow Likely 24 -4.4 18 -7.8 77 77 NW 20 31 29.9 1013 3 4.82802 0.01 0.254
9:54 pm 21:54 Cloudy with Light Snow 24 -4.4 18 -7.8 77 77 NW 17 28 29.88 1012 3 4.82802 0.01 0.254
10:54 pm 22:54 Clear with Light Snow 24 -4.4 17 -8.3 75 75 NW 15 24 29.92 1013 3 4.82802 0 0.0254
11:54 pm 23:54 Clear with Light Snow 23 -5 15 -9.4 72 72 WNW 15 24 29.94 1014 4 6.43736 0 0.0254

Powered by AerisWeather